Augsburg Airport EDMA

Flugplatz Daten

Name: Augsburg Airport

Ident: EDMA

Lat: 48,42527771

Long: 10,93166733

Platzhöhe: 1516 ft

IataCode: AGB

City: Augsburg

Metar

2022/08/10 20:20
EDMA 102020Z AUTO 08007KT 9999 NCD 19/08 Q1023

Taf

Gewünschte Webcam nicht vorhanden? Dann fügen Sie eine hinzu. Sie wird dann so schnell wie möglich freigeschaltet
Url: Title: